Lapse_Rate
6.1 6.1 6.2 6.3 6.5 6.7 6.9 6.9 7.1 7.3 7.4 7.4 7.2 7.1 7.0 6.9 6.9 6.9 7.0 7.0 7.0 7.1 7.2 7.3 7.3 7.3 7.6 7.3 8.4 7.9 8.2 8.9 8.1 7.4 7.0 7.0 7.0 6.7 6.7 7.0 6.6 6.5 6.6 6.7 6.7
6.1 6.1 6.2 6.2 6.3 6.5 6.6 6.9 7.0 7.1 7.3 7.5 7.5 7.3 7.3 7.1 7.0 7.0 7.0 7.0 7.0 7.1 7.1 7.4 7.0 7.0 7.1 7.3 8.1 8.1 8.2 8.0 7.8 7.4 7.0 7.0 7.0 6.8 6.7 6.8 6.9 6.6 6.1 6.7 6.6
6.1 6.2 6.2 6.2 6.2 6.3 6.4 6.5 6.8 6.9 7.1 7.3 7.6 7.5 7.3 7.3 7.1 7.1 7.2 7.0 7.1 7.2 7.7 6.4 7.8 8.4 8.4 9.0 9.0 8.6 7.9 7.7 7.5 7.3 7.1 6.9 6.8 6.9 6.8 6.9 7.0 6.6 7.0 6.8 6.6
6.0 6.1 6.1 6.2 6.3 6.2 6.3 6.4 6.6 6.7 6.9 7.0 7.3 7.3 7.3 7.1 7.2 7.2 7.3 7.1 7.0 7.2 7.7 6.6 8.2 8.3 8.9 9.4 9.1 8.4 7.6 7.6 7.3 7.1 7.1 7.0 6.8 6.8 7.0 7.0 6.9 6.3 6.6 6.7 6.4
6.1 6.2 6.2 6.1 6.2 6.2 6.2 6.3 6.4 6.5 6.7 6.8 7.0 7.2 7.2 7.1 7.1 7.1 7.2 7.2 7.0 7.1 7.4 6.8 8.2 8.0 8.9 9.1 8.6 9.3 7.8 7.6 7.4 7.2 7.2 7.1 7.2 7.1 7.3 7.2 6.8 6.4 6.1 6.1 6.1
6.1 6.2 6.2 6.2 6.2 6.2 6.2 6.3 6.3 6.4 6.6 6.7 6.8 7.0 7.1 7.1 6.9 7.2 7.3 7.3 7.1 7.2 7.4 7.5 8.8 8.6 8.7 8.8 8.8 9.3 8.3 7.7 7.7 7.5 7.3 7.5 7.4 7.2 7.2 7.2 7.0 6.4 6.1 6.1 6.1
6.1 6.1 6.3 6.3 6.2 6.2 6.3 6.4 6.5 6.5 6.6 6.7 6.7 6.8 6.9 6.8 6.8 7.0 7.2 7.3 7.2 7.2 7.1 7.9 8.1 8.7 8.5 8.6 9.1 9.0 8.5 8.0 7.8 7.7 7.7 7.8 7.6 7.3 7.3 7.1 7.0 6.5 6.2 6.1 6.1
6.1 6.2 6.2 6.2 6.3 6.3 6.3 6.4 6.6 6.6 6.6 6.6 6.7 6.7 6.9 6.5 6.9 7.1 7.3 7.2 7.3 6.9 7.0 7.5 8.0 7.9 7.8 8.6 9.0 9.1 8.7 8.7 8.4 8.1 8.1 7.8 7.8 7.9 7.5 7.1 6.8 6.5 6.3 6.3 6.2
6.1 6.3 6.2 6.3 6.3 6.4 6.4 6.4 6.5 6.6 6.7 6.7 6.6 6.6 6.5 6.9 7.0 7.3 7.2 6.9 7.2 7.1 7.0 7.2 7.8 7.9 8.3 8.5 8.7 7.7 7.4 7.9 8.6 8.5 8.1 7.6 7.1 8.0 7.5 7.2 6.9 6.6 6.3 6.2 6.2
6.1 6.3 6.4 6.5 6.6 6.5 6.5 6.5 6.5 6.5 6.6 6.7 6.6 6.6 7.0 6.9 6.5 7.3 7.2 6.8 7.0 7.1 7.1 7.3 7.6 8.2 9.3 9.3 7.9 7.6 8.0 6.8 6.8 8.0 9.0 8.0 8.0 7.9 7.5 7.3 7.1 6.9 6.5 6.3 6.1
6.3 6.5 6.6 6.6 6.7 6.7 6.6 6.5 6.4 6.2 6.5 6.9 6.5 7.0 6.7 6.9 6.7 6.9 7.0 7.0 7.3 7.2 7.5 7.7 7.9 8.2 9.5 8.8 8.1 8.2 7.3 7.0 6.5 8.3 8.4 8.9 8.4 8.2 7.6 7.6 7.4 7.2 6.8 6.4 6.3
6.6 6.7 6.8 6.7 6.9 6.9 6.8 6.5 6.7 6.6 6.7 6.8 6.6 6.8 7.0 7.0 6.7 6.7 7.0 7.2 7.4 7.5 7.8 8.1 8.2 8.7 9.7 7.8 8.6 8.5 7.3 8.7 8.2 8.8 8.8 8.8 9.2 8.8 7.9 7.8 7.7 7.3 6.9 6.7 6.4
6.8 6.9 7.0 7.1 7.1 7.2 7.2 7.0 6.9 6.8 6.8 7.1 7.0 7.0 7.1 6.8 7.0 7.3 7.1 7.4 7.7 7.9 8.2 8.3 8.9 9.1 9.7 9.8 9.4 9.4 9.7 9.3 8.7 9.0 8.7 8.7 8.6 6.8 8.4 8.1 7.9 7.6 7.2 6.9 6.6
6.9 6.9 7.0 7.1 7.2 7.3 7.1 7.2 7.2 7.1 6.4 7.5 7.4 7.3 7.2 7.2 7.2 7.5 7.5 7.6 7.9 8.2 8.5 8.8 9.3 9.7 9.5 9.7 9.7 9.6 9.8 9.4 9.2 9.5 9.5 8.9 8.8 8.6 8.7 8.0 8.2 7.9 7.7 7.3 6.8
6.7 6.7 6.9 7.0 7.0 7.0 7.4 7.3 7.3 7.2 8.3 8.1 7.8 7.6 7.6 7.5 8.3 7.8 7.9 7.9 8.1 8.4 9.0 9.3 9.7 9.7 9.7 9.7 9.7 9.6 9.0 9.3 9.6 9.7 9.2 8.1 8.2 7.8 8.4 8.6 8.3 7.9 7.9 7.7 7.2
6.5 6.6 6.7 6.8 6.9 7.1 7.3 7.4 7.3 6.9 9.1 9.0 8.1 7.7 7.7 7.7 8.2 8.5 8.1 8.0 8.4 8.7 9.5 9.3 9.7 9.7 9.7 9.7 9.7 9.6 9.7 9.6 9.2 9.5 9.7 9.6 8.1 6.8 6.7 7.4 7.2 8.4 8.0 7.8 7.5
6.3 6.4 6.4 6.6 6.7 6.9 7.1 7.2 7.0 8.1 9.6 9.6 9.1 8.3 8.2 8.3 8.7 8.4 8.4 8.3 8.4 8.6 8.9 9.3 9.3 9.7 9.7 9.7 9.7 9.7 9.7 9.7 9.7 9.7 9.7 9.6 8.3 8.3 8.0 7.8 7.9 8.3 8.3 8.0 7.7
6.2 6.3 6.3 6.4 6.5 6.7 6.8 6.8 7.2 8.8 9.6 9.7 9.6 9.3 8.6 8.9 8.8 9.4 8.7 8.6 8.6 9.2 9.6 9.6 9.7 9.4 9.7 9.0 9.3 9.6 9.6 9.6 9.3 9.6 9.7 9.4 7.4 7.4 8.4 8.6 8.7 9.3 8.9 8.3 7.9
6.2 6.3 6.3 6.5 6.4 6.5 6.6 6.5 7.7 8.7 9.6 9.7 9.6 9.5 9.7 9.7 9.7 9.7 9.4 8.9 9.4 9.0 9.7 9.7 9.7 9.7 9.5 9.6 9.0 9.2 9.6 9.6 9.6 9.6 9.1 9.1 8.1 8.4 8.6 8.8 8.8 9.5 9.3 8.7 8.2
6.2 6.2 6.1 6.4 6.3 6.2 6.0 6.5 7.8 8.3 9.0 8.6 8.7 9.7 9.7 9.7 9.7 9.7 9.7 9.7 9.7 9.7 9.6 9.6 9.7 9.7 9.7 9.7 9.7 9.0 9.6 9.7 9.6 9.5 9.0 9.0 8.6 8.2 8.2 8.7 9.2 9.6 9.4 8.5 8.3
5.9 6.1 4.8 5.8 6.0 6.0 5.9 6.9 7.8 8.9 8.6 8.0 8.3 9.0 9.6 9.7 9.7 9.7 9.7 9.7 9.7 9.7 9.7 9.7 9.7 9.7 9.7 9.7 9.7 9.7 9.2 9.5 9.6 9.7 9.8 8.9 8.3 9.5 9.6 9.3 9.7 9.7 9.5 9.2 8.3
5.8 5.6 4.8 6.0 5.6 6.1 6.5 7.1 7.7 7.8 7.6 7.6 7.8 8.2 8.7 9.5 9.8 9.9 9.7 9.7 9.7 9.7 9.7 9.7 9.7 9.7 9.7 9.7 9.7 9.7 9.7 9.6 9.8 9.6 9.6 9.6 9.3 9.0 9.4 9.7 9.7 9.7 9.5 9.6 8.9
6.0 6.3 5.6 5.7 6.2 7.2 7.5 7.9 8.0 7.7 7.3 7.6 8.0 8.1 8.5 8.7 9.2 9.7 9.7 9.7 9.7 9.7 9.7 9.7 9.6 9.7 9.7 9.7 9.6 9.4 9.4 9.7 9.7 9.7 9.6 9.7 9.7 9.5 9.4 9.9 9.8 9.7 9.6 9.3 9.1
6.9 6.6 6.9 6.8 7.0 7.3 7.6 7.6 7.8 7.8 7.5 7.6 7.5 7.9 8.5 8.8 9.0 9.4 9.7 9.7 9.5 9.5 9.6 9.5 9.6 9.7 9.7 9.7 9.7 9.5 9.5 9.4 9.7 9.8 9.7 9.7 9.7 9.3 8.6 9.4 9.6 9.8 9.6 9.4 9.2
6.8 7.0 6.8 7.3 8.0 7.6 7.7 7.7 7.9 7.8 7.9 8.4 8.0 7.8 7.8 8.2 8.7 9.3 9.6 9.8 9.6 9.4 9.2 9.5 9.6 9.6 9.7 9.8 9.9 9.7 9.7 9.5 9.7 9.7 9.7 9.7 9.7 9.7 9.4 9.6 9.5 9.6 9.3 9.3 9.2
6.9 6.8 6.8 7.8 7.7 7.4 7.8 8.0 8.0 8.1 8.4 8.5 8.3 8.0 8.3 8.3 8.4 8.9 8.6 8.7 9.1 9.6 8.9 9.0 9.3 9.5 9.6 9.7 9.8 9.7 9.7 9.7 9.7 9.7 9.7 9.6 9.6 9.6 9.5 9.6 9.7 9.6 9.5 9.2 9.0
6.7 6.8 6.5 6.8 6.5 7.2 7.8 8.1 8.2 8.3 8.3 7.9 8.1 8.3 7.6 8.4 7.4 6.9 7.1 7.1 8.1 8.7 9.5 9.1 9.5 9.7 9.7 9.7 9.7 9.7 9.7 9.7 9.7 9.7 9.7 9.7 9.7 9.7 9.7 9.6 9.4 9.5 9.3 9.3 8.7
Wind_Speed
26 26 26 25 26 26 24 25 25 23 22 22 22 22 19 20 25 6 9 4 6 22 7 14 19 15 15 18 13 6 4 9 14 12 8 5 13 15 16 13 16 11 21 24 23
26 26 26 27 27 26 25 23 25 26 24 21 21 22 19 18 9 15 6 8 20 17 12 17 19 15 13 11 11 13 3 13 13 16 12 13 12 13 12 12 10 21 21 22 22
27 27 27 27 28 27 27 25 23 25 25 24 19 20 18 14 9 8 5 12 16 16 18 18 22 15 8 8 5 13 10 14 13 14 15 12 13 13 13 11 14 22 23 22 22
29 28 28 28 29 29 29 27 25 24 25 24 19 18 16 5 5 6 10 10 10 13 15 21 15 1 11 3 11 17 15 15 12 13 13 13 17 14 13 17 17 20 21 21 21
29 29 28 28 29 28 28 28 27 25 23 22 19 14 8 8 14 9 12 10 11 11 16 20 6 13 13 19 5 16 16 13 15 13 13 14 12 13 5 14 19 22 20 20 19
29 29 29 29 29 28 28 28 28 26 23 20 16 9 6 14 8 13 12 13 14 14 17 18 5 17 11 18 13 13 17 14 13 13 12 11 12 10 8 8 19 20 19 18 18
29 30 29 30 30 29 29 28 28 26 22 18 12 5 11 14 2 7 11 12 16 17 20 11 9 14 13 14 11 13 12 12 12 13 7 11 8 11 12 11 16 18 18 18 17
32 32 31 30 30 31 30 30 28 25 20 15 4 6 8 3 4 7 12 14 15 19 15 13 7 15 12 17 8 14 8 6 12 12 8 7 10 10 13 13 15 17 16 16 17
32 33 33 32 31 31 32 32 29 20 15 12 6 8 15 5 11 14 15 17 15 16 14 11 10 17 11 18 3 13 6 19 9 13 17 9 11 14 15 15 15 16 16 16 15
33 34 34 33 32 31 34 33 9 9 8 9 11 9 15 14 12 13 16 16 14 13 14 14 12 15 16 8 4 5 2 12 17 9 16 17 17 17 16 17 16 16 17 16 16
33 34 35 35 34 28 16 3 4 5 11 14 3 13 7 4 6 8 14 16 15 15 16 17 13 16 18 21 29 27 19 19 32 16 18 25 24 19 18 16 17 17 17 17 17
34 34 36 36 35 29 8 7 7 7 10 16 20 18 9 2 10 12 15 15 17 19 19 18 17 21 15 28 27 24 32 23 25 22 13 13 16 20 21 18 18 18 18 18 18
35 35 35 38 36 12 10 8 7 10 7 16 21 19 17 11 14 15 19 20 17 19 20 20 21 18 20 11 9 15 13 8 15 13 12 6 19 7 3 17 16 17 19 19 19
36 35 34 40 8 11 6 5 7 8 6 12 12 10 17 14 17 19 19 19 21 20 21 20 22 16 17 12 7 15 9 9 11 5 8 4 7 4 13 19 16 18 18 19 20
36 35 33 14 12 6 10 10 9 8 6 10 10 6 10 18 5 18 18 16 22 21 18 19 22 19 14 10 13 16 2 10 11 9 6 11 4 7 12 11 20 18 19 19 21
38 35 29 2 6 12 11 10 8 6 9 10 10 10 15 17 19 13 11 16 20 21 19 19 21 17 21 14 16 16 14 13 13 12 13 20 15 7 8 26 23 19 19 19 22
40 43 16 8 4 11 9 7 6 8 3 6 8 13 16 16 20 12 15 18 17 15 18 19 22 21 14 20 16 18 12 11 11 12 13 19 12 10 19 13 23 23 19 19 20
46 44 7 8 10 9 7 7 9 12 14 7 2 17 14 17 18 16 14 15 19 20 16 16 16 22 14 17 17 20 14 13 16 14 7 15 7 4 24 24 20 23 21 19 20
42 7 6 7 11 5 7 10 12 15 10 8 7 12 16 16 12 17 19 18 19 20 19 14 20 17 27 18 20 22 16 20 23 23 3 10 7 4 18 20 16 15 22 19 19
10 10 12 8 4 6 7 15 21 22 8 8 13 9 14 16 19 16 18 18 19 21 19 21 14 12 17 21 21 22 18 16 13 20 13 8 2 7 22 23 12 13 16 18 20
5 5 7 5 5 6 10 16 19 17 5 8 16 18 17 17 17 15 18 16 19 19 21 17 18 13 12 10 16 13 17 21 18 14 15 7 9 8 24 25 7 12 10 20 21
6 5 7 4 7 8 12 19 21 17 12 8 16 19 19 20 17 16 17 14 12 14 14 12 12 13 13 13 17 20 20 21 13 16 15 14 10 8 11 13 9 4 10 14 19
7 8 7 4 8 11 16 21 18 12 13 19 16 17 18 19 18 21 14 15 11 13 12 15 12 12 15 17 15 17 18 17 19 19 19 14 12 8 2 9 15 3 11 12 12
5 5 3 4 8 13 16 17 16 10 15 14 18 19 18 17 18 18 16 11 11 10 4 5 11 15 14 13 16 19 18 19 22 14 17 18 17 9 12 21 11 3 14 15 11
4 5 10 7 11 15 13 16 17 16 19 10 12 14 18 18 16 19 19 15 15 11 6 10 16 17 18 15 11 9 19 17 22 21 18 18 16 12 13 12 7 9 7 14 9
6 6 11 14 18 16 14 14 16 17 18 18 17 15 15 16 21 17 17 16 16 17 15 15 15 18 19 17 13 6 15 14 18 20 18 17 12 9 6 5 7 3 5 11 11
9 10 7 9 13 14 13 14 14 14 10 14 15 17 16 9 20 18 18 18 19 20 14 19 16 16 16 17 14 9 12 14 17 20 15 15 12 10 7 3 8 4 3 7 16
Wind_Direction
348 347 344 342 339 336 334 332 328 325 323 320 318 316 320 322 307 211 257 129 173 172 202 197 230 233 235 252 262 182 295 110 117 131 139 151 144 111 108 126 151 121 142 147 145
347 345 342 339 337 333 330 330 327 323 321 319 316 314 320 326 285 262 152 155 151 165 192 214 212 215 235 90 296 117 164 77 86 118 136 149 124 124 140 154 116 124 122 137 152
345 343 341 337 334 331 328 325 325 320 318 316 317 312 317 317 272 236 178 163 171 187 234 252 234 212 193 139 216 74 88 108 112 122 139 142 131 160 139 139 143 131 144 152 154
341 341 338 336 332 330 325 322 321 320 316 312 316 312 317 262 248 97 167 181 175 218 251 266 251 3 312 127 69 111 112 101 121 132 131 149 154 161 183 140 133 140 151 158 165
338 336 335 332 328 326 321 318 317 318 313 309 311 317 290 233 257 134 154 159 186 210 247 266 73 320 237 64 251 117 116 127 129 151 139 148 166 147 172 146 146 146 158 165 173
336 335 333 329 324 322 319 316 315 314 310 306 304 309 246 253 88 142 169 171 207 210 246 263 145 212 287 115 242 129 126 134 154 154 144 160 142 172 145 185 149 155 167 173 180
334 332 330 327 324 321 317 314 311 309 305 305 299 258 265 250 110 185 177 202 215 215 246 258 302 305 34 147 215 107 126 153 154 157 175 136 136 227 157 162 160 167 173 176 186
333 330 329 326 323 319 315 310 306 301 296 300 298 243 260 199 248 227 213 205 218 244 262 307 308 284 94 285 239 188 42 165 156 177 148 209 168 170 163 169 169 171 178 179 185
331 329 327 325 322 319 314 307 298 287 277 277 252 228 263 114 227 224 224 216 206 231 249 268 283 268 154 223 49 46 119 266 227 194 145 86 304 159 172 178 176 177 178 183 186
330 328 325 323 320 320 317 293 278 300 226 251 262 265 231 224 200 201 218 225 212 220 234 238 246 251 245 217 103 299 5 241 270 249 159 153 230 228 181 183 180 184 180 187 187
329 327 324 322 320 322 332 317 211 196 231 241 188 236 134 180 87 211 197 215 217 217 222 224 240 241 244 141 174 197 210 212 237 212 230 181 203 173 183 191 182 187 186 190 193
329 327 325 323 319 315 285 275 45 331 293 257 247 248 266 151 204 217 202 206 212 214 220 236 223 248 256 131 189 199 203 231 191 188 205 197 229 171 173 195 191 192 188 193 190
329 328 328 323 318 292 250 320 332 320 267 273 227 227 225 206 243 200 202 208 213 223 221 231 233 232 263 215 192 231 264 137 148 226 217 130 252 204 151 187 207 198 195 190 190
328 328 329 327 300 331 282 15 305 318 279 235 182 217 210 208 233 254 185 213 231 222 228 233 247 227 236 250 224 253 258 181 200 241 223 184 263 355 14 325 206 209 205 188 190
326 327 326 328 310 293 357 322 330 272 291 138 139 114 202 194 219 205 187 208 229 229 229 237 243 254 262 246 230 268 289 274 286 244 179 199 188 304 355 300 269 223 209 201 182
324 324 331 152 218 262 313 300 277 238 259 157 138 194 203 209 234 182 193 210 228 240 241 250 260 225 251 233 258 257 260 229 251 271 268 259 168 185 180 222 275 210 222 203 185
323 316 312 297 293 339 308 273 237 246 64 209 183 178 208 194 229 156 200 200 220 223 237 234 246 261 227 247 230 248 257 262 251 234 245 250 83 175 176 185 237 255 195 201 199
324 310 232 230 288 281 275 244 249 266 251 96 323 168 198 209 218 172 204 213 219 226 233 221 219 235 228 237 251 237 227 243 249 245 268 9 104 149 199 201 227 205 179 192 191
320 303 240 207 226 275 244 228 241 247 317 346 212 264 197 211 210 203 200 215 214 222 244 241 221 209 215 207 221 248 216 243 266 280 90 263 81 116 241 233 207 191 160 176 184
317 293 259 115 193 226 241 251 274 303 331 306 289 240 255 209 211 224 208 220 228 214 222 259 278 291 195 210 206 228 254 241 233 263 282 289 88 216 219 229 225 167 162 163 178
259 270 101 185 213 238 241 256 258 273 228 279 270 279 262 256 207 217 249 220 213 239 215 229 256 243 200 193 227 211 237 255 272 267 254 198 253 207 192 224 159 154 172 162 172
306 281 115 264 244 239 250 253 267 292 312 274 274 283 291 293 276 221 233 229 186 219 204 224 251 254 190 227 225 240 218 234 248 257 272 278 113 134 208 297 161 228 131 155 160
301 289 273 222 261 253 256 255 257 278 280 281 272 262 277 277 281 290 212 238 167 207 196 210 230 258 266 204 189 216 243 248 234 254 266 274 262 117 133 289 288 209 129 120 151
284 305 213 218 252 282 293 300 317 312 274 279 297 299 276 270 272 277 268 199 148 196 41 323 257 219 243 237 199 196 210 227 247 230 241 257 270 126 136 272 285 272 148 148 166
251 343 357 298 324 343 327 318 304 298 297 282 273 268 280 284 269 263 270 268 173 157 194 240 250 270 262 277 269 207 199 210 239 244 246 234 249 245 183 172 87 83 83 128 162
340 347 337 300 289 280 271 268 268 276 265 272 287 273 279 256 262 331 340 331 327 168 206 217 239 264 278 286 265 226 258 200 221 243 261 271 281 312 33 95 155 168 150 155 167
2 335 307 294 299 295 282 283 297 315 273 300 292 293 287 316 336 322 304 297 288 293 216 212 227 237 249 247 270 211 246 241 202 219 236 251 262 278 305 20 56 49 276 223 169